Versailles, OH

10:59 AM EST on December 16, 2017 (GMT -0500)
Darke County

Weather History for KVES - March, 2013

Change the Weather History Date:

Wednesday, March 27, 2013

  Actual Average (KDAY) Record (KDAY)
Temperature  
Mean Temperature 32 °F -  
Max Temperature 39 °F 52 °F 83 °F (1910)
Min Temperature 26 °F 33 °F 11 °F (1955)
Degree Days  
Heating Degree Days 32    
Moisture  
Dew Point 28 °F    
Average Humidity 82    
Maximum Humidity 100    
Minimum Humidity 65    
Precipitation  
Precipitation 0.00 in - - ()
Sea Level Pressure  
Sea Level Pressure 30.24 in    
Wind  
Wind Speed 11 mph (WNW)    
Max Wind Speed 16 mph    
Max Gust Speed 21 mph    
Visibility 10 miles    
Events      
Averages and records for this station are not official NWS values.
T = Trace of Precipitation, MM = Missing Value Source: NWS Daily Summary

Daily Weather History Graph

Daily Weather History Graph

Search for Another Location

Airport or City:

Trip Planner

Search our weather history database for the weather conditions in past years. The results will help you decide how hot, cold, wet, or windy it might be!

Date:

Astronomy

Mar. 27, 2013 Rise Set
Actual Time 7:29 AM EDT 7:57 PM EDT
Civil Twilight 7:02 AM EDT 8:24 PM EDT
Nautical Twilight 6:30 AM EDT 8:57 PM EDT
Astronomical Twilight 5:57 AM EDT 9:30 PM EDT
Moon 8:40 PM EDT (3/27) 7:20 AM EDT (3/27)
Length of Visible Light 13h 22m
Length of Day
12h 27m
Full, 100% of the Moon is Illuminated
Mar 27
Full
Apr 3
Last Quarter
Apr 10
New
Apr 18
First Quarter
Apr 25
Full

Hourly Weather History & Observations

Time (EDT) Temp. Windchill Dew Point Humidity Pressure Visibility Wind Dir Wind Speed Gust Speed Precip Events Conditions
12:15 AM 32.0 °F 23.0 °F 28.4 °F 87% 30.19 in 10.0 mi West 11.5 mph - N/A   Overcast
12:35 AM 32.0 °F 23.0 °F 28.4 °F 87% 30.19 in 10.0 mi West 11.5 mph - N/A   Overcast
12:55 AM 32.0 °F 23.6 °F 28.4 °F 87% 30.19 in 10.0 mi West 10.4 mph - N/A   Overcast
1:15 AM 32.0 °F 23.0 °F 28.4 °F 87% 30.19 in 10.0 mi West 11.5 mph - N/A   Overcast
1:35 AM 32.0 °F 23.0 °F 28.4 °F 87% 30.19 in 10.0 mi West 11.5 mph - N/A   Overcast
1:55 AM 32.0 °F 23.0 °F 28.4 °F 87% 30.19 in 10.0 mi West 11.5 mph - N/A   Mostly Cloudy
2:15 AM 32.0 °F 24.8 °F 28.4 °F 87% 30.19 in 10.0 mi WNW 8.1 mph - N/A   Overcast
2:35 AM 30.2 °F 21.9 °F 28.4 °F 93% 30.19 in 10.0 mi WNW 9.2 mph - N/A   Overcast
2:55 AM 32.0 °F 22.5 °F 28.4 °F 87% 30.19 in 10.0 mi West 12.7 mph - N/A   Overcast
3:15 AM 32.0 °F 23.6 °F 28.4 °F 87% 30.19 in 10.0 mi WNW 10.4 mph 16.1 mph N/A   Overcast
3:35 AM 32.0 °F 23.6 °F 28.4 °F 87% 30.19 in 10.0 mi West 10.4 mph - N/A   Overcast
3:55 AM 32.0 °F 23.0 °F 28.4 °F 87% 30.18 in 10.0 mi WNW 11.5 mph - N/A   Overcast
4:15 AM 32.0 °F 24.2 °F 28.4 °F 87% 30.18 in 10.0 mi West 9.2 mph - N/A   Overcast
4:35 AM 32.0 °F 24.2 °F 28.4 °F 87% 30.19 in 10.0 mi WNW 9.2 mph - N/A   Overcast
4:55 AM 32.0 °F 23.0 °F 28.4 °F 87% 30.19 in 10.0 mi WNW 11.5 mph - N/A   Overcast
5:15 AM 32.0 °F 24.2 °F 28.4 °F 87% 30.19 in 10.0 mi WNW 9.2 mph - N/A   Overcast
5:35 AM 30.2 °F 21.3 °F 28.4 °F 93% 30.19 in 10.0 mi West 10.4 mph - N/A   Overcast
5:55 AM 30.2 °F 20.2 °F 28.4 °F 93% 30.20 in 10.0 mi WNW 12.7 mph - N/A   Overcast
6:15 AM 30.2 °F 21.3 °F 26.6 °F 86% 30.20 in 10.0 mi WNW 10.4 mph 16.1 mph N/A   Overcast
6:35 AM 28.4 °F 18.5 °F 26.6 °F 93% 30.21 in 10.0 mi West 11.5 mph - N/A   Scattered Clouds
6:55 AM 28.4 °F 18.5 °F 26.6 °F 93% 30.21 in 10.0 mi West 11.5 mph - N/A   Clear
7:15 AM 26.6 °F 16.8 °F 26.6 °F 100% 30.21 in 10.0 mi West 10.4 mph - N/A   Clear
7:35 AM 26.6 °F 17.5 °F 24.8 °F 93% 30.22 in 10.0 mi West 9.2 mph - N/A   Clear
7:55 AM 26.6 °F 17.5 °F 26.6 °F 100% 30.22 in 10.0 mi West 9.2 mph - N/A   Mostly Cloudy
8:15 AM 28.4 °F 18.5 °F 26.6 °F 93% 30.23 in 10.0 mi West 11.5 mph - N/A   Scattered Clouds
8:35 AM 28.4 °F 19.1 °F 26.6 °F 93% 30.24 in 10.0 mi West 10.4 mph - N/A   Mostly Cloudy
8:55 AM 28.4 °F 19.7 °F 26.6 °F 93% 30.24 in 10.0 mi West 9.2 mph - N/A   Overcast
9:15 AM 28.4 °F 20.4 °F 26.6 °F 93% 30.25 in 10.0 mi West 8.1 mph - N/A   Overcast
9:35 AM 30.2 °F 22.6 °F 26.6 °F 86% 30.25 in 10.0 mi West 8.1 mph - N/A   Overcast
9:55 AM 30.2 °F 23.4 °F 26.6 °F 86% 30.25 in 10.0 mi WNW 6.9 mph - N/A   Overcast
10:15 AM 32.0 °F 24.2 °F 28.4 °F 87% 30.25 in 10.0 mi WNW 9.2 mph - N/A   Overcast
10:35 AM 32.0 °F 23.6 °F 28.4 °F 87% 30.26 in 10.0 mi West 10.4 mph - N/A   Overcast
10:55 AM 32.0 °F 24.8 °F 28.4 °F 87% 30.26 in 10.0 mi WNW 8.1 mph - N/A   Overcast
11:15 AM 32.0 °F 23.6 °F 28.4 °F 87% 30.27 in 10.0 mi West 10.4 mph - N/A   Overcast
11:35 AM 33.8 °F 25.8 °F 28.4 °F 81% 30.27 in 10.0 mi West 10.4 mph - N/A   Overcast
11:55 AM 33.8 °F 25.8 °F 28.4 °F 81% 30.27 in 10.0 mi West 10.4 mph - N/A   Overcast
12:15 PM 35.6 °F 28.0 °F 30.2 °F 81% 30.27 in 10.0 mi West 10.4 mph - N/A   Scattered Clouds
12:35 PM 35.6 °F 28.6 °F 30.2 °F 81% 30.27 in 10.0 mi West 9.2 mph - N/A   Clear
12:55 PM 35.6 °F 28.0 °F 30.2 °F 81% 30.26 in 10.0 mi West 10.4 mph - N/A   Clear
1:15 PM 35.6 °F 27.5 °F 30.2 °F 81% 30.26 in 10.0 mi West 11.5 mph - N/A   Clear
1:35 PM 35.6 °F 28.0 °F 30.2 °F 81% 30.26 in 10.0 mi West 10.4 mph - N/A   Clear
1:55 PM 37.4 °F 28.9 °F 30.2 °F 75% 30.26 in 10.0 mi West 13.8 mph - N/A   Clear
2:15 PM 37.4 °F 28.9 °F 28.4 °F 70% 30.26 in 10.0 mi West 13.8 mph - N/A   Clear
2:35 PM 37.4 °F 29.3 °F 28.4 °F 70% 30.26 in 10.0 mi West 12.7 mph 17.3 mph N/A   Clear
2:55 PM 37.4 °F 30.3 °F 30.2 °F 75% 30.26 in 10.0 mi West 10.4 mph - N/A   Clear
3:15 PM 37.4 °F 29.3 °F 30.2 °F 75% 30.26 in 10.0 mi West 12.7 mph 17.3 mph N/A   Clear
3:35 PM 37.4 °F 28.9 °F 28.4 °F 70% 30.26 in 10.0 mi WNW 13.8 mph - N/A   Clear
3:55 PM 37.4 °F 28.2 °F 28.4 °F 70% 30.25 in 10.0 mi WNW 16.1 mph - N/A   Clear
4:15 PM 39.2 °F 32.5 °F 28.4 °F 65% 30.25 in 10.0 mi WNW 10.4 mph 18.4 mph N/A   Clear
4:35 PM 37.4 °F 28.9 °F 28.4 °F 70% 30.25 in 10.0 mi WNW 13.8 mph 18.4 mph N/A   Clear
4:55 PM 37.4 °F 28.5 °F 26.6 °F 65% 30.24 in 10.0 mi West 15.0 mph 20.7 mph N/A   Scattered Clouds
5:15 PM 39.2 °F 31.6 °F 28.4 °F 65% 30.24 in 10.0 mi WNW 12.7 mph 19.6 mph N/A   Mostly Cloudy
5:35 PM 37.4 °F 30.3 °F 28.4 °F 70% 30.24 in 10.0 mi West 10.4 mph 16.1 mph N/A   Overcast
5:55 PM 37.4 °F 30.3 °F 28.4 °F 70% 30.24 in 10.0 mi WNW 10.4 mph 17.3 mph N/A   Overcast
6:15 PM 37.4 °F 29.3 °F 26.6 °F 65% 30.24 in 10.0 mi WNW 12.7 mph 16.1 mph N/A   Overcast
6:35 PM 37.4 °F 30.3 °F 26.6 °F 65% 30.25 in 10.0 mi WNW 10.4 mph - N/A   Overcast
6:55 PM 35.6 °F 28.0 °F 28.4 °F 75% 30.25 in 10.0 mi WNW 10.4 mph - N/A   Overcast
7:15 PM 35.6 °F 28.6 °F 30.2 °F 81% 30.26 in 10.0 mi WNW 9.2 mph - N/A   Overcast
7:35 PM 35.6 °F 28.6 °F 28.4 °F 75% 30.26 in 10.0 mi WNW 9.2 mph - N/A   Overcast
7:55 PM 35.6 °F 29.2 °F 26.6 °F 70% 30.26 in 10.0 mi WNW 8.1 mph - N/A   Mostly Cloudy
8:15 PM 33.8 °F 27.0 °F 26.6 °F 75% 30.26 in 10.0 mi West 8.1 mph - N/A   Overcast
8:35 PM 33.8 °F 26.4 °F 28.4 °F 81% 30.26 in 10.0 mi West 9.2 mph - N/A   Overcast
8:55 PM 33.8 °F 27.7 °F 28.4 °F 81% 30.26 in 10.0 mi West 6.9 mph - N/A   Overcast
9:15 PM 33.8 °F 27.7 °F 30.2 °F 87% 30.26 in 10.0 mi West 6.9 mph - N/A   Overcast
9:35 PM 33.8 °F 27.0 °F 28.4 °F 81% 30.26 in 10.0 mi West 8.1 mph - N/A   Overcast
9:55 PM 33.8 °F 26.4 °F 28.4 °F 81% 30.27 in 10.0 mi West 9.2 mph - N/A   Overcast
10:15 PM 33.8 °F 27.0 °F 28.4 °F 81% 30.27 in 10.0 mi West 8.1 mph - N/A   Mostly Cloudy
10:35 PM 33.8 °F 27.0 °F 28.4 °F 81% 30.28 in 10.0 mi West 8.1 mph - N/A   Overcast
10:55 PM 33.8 °F 27.7 °F 26.6 °F 75% 30.28 in 10.0 mi West 6.9 mph - N/A   Mostly Cloudy
11:15 PM 32.0 °F 25.6 °F 26.6 °F 80% 30.28 in 10.0 mi WNW 6.9 mph - N/A   Clear
11:35 PM 32.0 °F 26.4 °F 26.6 °F 80% 30.28 in 10.0 mi West 5.8 mph - N/A   Clear
11:55 PM 32.0 °F 26.4 °F 26.6 °F 80% 30.28 in 10.0 mi West 5.8 mph - N/A   Clear